Home   Weather   Melbourne   Past weeks

Flag for Australia Past Weather in Melbourne, Victoria, Australia — Yesterday and Last 2 Weeks

46 °F

Partly cloudy.

Feels Like: 43 °F
Forecast: 40 / 73 °F
Wind: 7 mph from Northwest

Location: Melbourne Airport

Current Time: Oct 29, 2016 at 5:15:37 AM

Latest Report: Oct 29, 2016 at 4:00 AM

Visibility: N/A

Pressure: 30.07 "Hg

Humidity: 93%

Dew Point: 45 °F

Location of MelbourneLocation

Past Weather in Melbourne — Graph


Melbourne Temperature Yesterday

Maximum temperature yesterday: 63 °F (at 2:00 PM)
Minimum temperature yesterday: 39 °F (at 4:00 AM)
Average temperature yesterday: 52 °F

High & Low Weather Summary for the Past Weeks

High73 °F (Oct 15, 1:00 PM)100% (Oct 21, 3:00 PM)30.30 "Hg (Oct 21, 3:00 PM)
Low36 °F (Oct 14, 6:00 AM)25% (Oct 15, 1:54 PM)29.50 "Hg (Oct 16, 3:00 PM)
Average55 °F66%29.97 "Hg
* Reported Oct 14 4:00 AM — Oct 29 4:00 AM, Melbourne, Weather by CustomWeather, © 2016

Note: Actual official high and low records may vary slightly from our data, if they occured in-between our weather recording intervals... More about our weather records


Melbourne Weather History for the Previous 24 Hours

Scroll right to see more
Time TempWeatherWind HumidityBarometerVisibility
4:00 AM
Sat, Oct 29
46 °FPartly cloudy.7 mph93%30.07 "HgN/A
3:00 AM46 °FPassing clouds.8 mph93%30.07 "HgN/A
2:30 AM48 °FPassing clouds.6 mph94%30.07 "HgN/A
2:00 AM46 °FPassing clouds.3 mph93%30.07 "HgN/A
1:48 AM46 °FPassing clouds.6 mph93%30.09 "HgN/A
1:30 AM46 °FPassing clouds.7 mph93%30.09 "HgN/A
1:00 AM46 °FPassing clouds.8 mph93%30.09 "HgN/A
12:30 AM46 °FPassing clouds.6 mph93%30.09 "HgN/A
12:00 AM46 °FPassing clouds.8 mph93%30.12 "HgN/A
11:30 PM
Fri, Oct 28
46 °FPassing clouds.7 mph87%30.12 "HgN/A
11:00 PM48 °FClear.5 mph87%30.12 "Hg10 mi
10:30 PM50 °FClear.6 mph88%30.12 "Hg10 mi
10:00 PM50 °FClear.7 mph88%30.12 "Hg10 mi
9:30 PM50 °FClear.6 mph82%30.12 "Hg10 mi
9:00 PM52 °FClear.6 mph72%30.09 "Hg10 mi
8:30 PM54 °FClear.8 mph67%30.09 "Hg10 mi
8:00 PM54 °FClear.8 mph67%30.09 "Hg10 mi
7:30 PM57 °FSunny.9 mph63%30.07 "Hg10 mi
7:00 PM59 °FSunny.9 mph59%30.07 "Hg10 mi
6:30 PM59 °FSunny.10 mph51%30.07 "Hg10 mi
6:00 PM61 °FSunny.12 mph39%30.07 "Hg10 mi
5:30 PM61 °FSunny.13 mph45%30.07 "Hg10 mi
5:00 PM61 °FSunny.13 mph52%30.07 "Hg10 mi
4:30 PM63 °FSunny.14 mph49%30.07 "Hg10 mi
4:00 PM63 °FPartly sunny.10 mph45%30.04 "HgN/A
3:30 PM61 °FPartly sunny.9 mph48%30.07 "HgN/A
3:00 PM61 °FPartly sunny.10 mph45%30.07 "HgN/A
2:30 PM63 °FScattered clouds.10 mph42%30.07 "HgN/A
2:00 PM63 °FPassing clouds.8 mph45%30.07 "HgN/A
1:30 PM61 °FPassing clouds.7 mph48%30.07 "HgN/A
1:00 PM61 °FScattered clouds.7 mph52%30.09 "HgN/A
12:30 PM61 °FScattered clouds.5 mph52%30.09 "HgN/A
12:00 PM59 °FScattered clouds.8 mph55%30.09 "HgN/A
11:30 AM59 °FPartly sunny.7 mph55%30.12 "HgN/A
11:00 AM57 °FPassing clouds.8 mph59%30.12 "HgN/A
10:30 AM55 °FPassing clouds.7 mph63%30.12 "HgN/A
10:00 AM54 °FScattered clouds.7 mph67%30.12 "HgN/A
9:00 AM50 °FPartly sunny.5 mph76%30.12 "HgN/A
8:00 AM46 °FSunny.8 mph87%30.09 "Hg10 mi
7:30 AM45 °FSunny.7 mph87%30.09 "Hg10 mi
7:00 AM41 °FSunny.6 mph93%30.09 "Hg10 mi
6:00 AM39 °FClear.6 mph93%30.09 "Hg10 mi
5:30 AM39 °FClear.7 mph93%30.07 "Hg10 mi
5:00 AM39 °FClear.8 mph93%30.07 "Hg10 mi
Weather by CustomWeather, © 2016

See weather overviewHow to use our weather pages